Location: Góry Miechowskie
(50.3599°N, 20.1803°E)
Time: 13:38:18
(UTC+00:00)

Cosmos 1461 - Pass Details

Date: 15 June 2024
Orbit: 499 x 578 km, 65.0° (Epoch: 15 July)

Event Time Altitude Azimuth Distance (km) Brightness Sun altitude
Exits shadow 01:11:36 11° 232° (SW) 1,683 4.7 -9.0°
Maximum altitude 01:15:18 62° 313° (NW) 587 3.0 -8.7°
Drops below altitude 10° 01:19:08 10° 35° (NE) 1,733 7.1 -8.3°
Sets 01:21:18 0° 39° (NE) 2,614 8.9 -8.1°
